Location: Lake Runnemede Observatory
(43.4843°N, 72.3851°W)
Time: 16:56:37
(UTC-04:00)

Amateur Radio Satellites - All Passes

Search period start: 19 April 2014 16:26
Search period end: 20 April 2014 16:26
Location: Lake Runnemede Observatory, 43.4843°N, 72.3851°W

Satellite Date Start Highest point End Downlink Frequencies (MHz)
Time Altitude Azimuth
AO-7 19 Apr 16:50:33 16:58:43 63° 256° (WSW) 17:06:56 29.400 - 29.500 MHz
SO-50 19 Apr 16:52:29 16:56:34 34° 314° (NW) 17:00:43 436.795 FM
OPAL 19 Apr 17:03:36 17:07:41 24° 299° (WNW) 17:11:46 ?
JAS-1B 19 Apr 17:10:28 17:17:15 29° 264° (W) 17:23:11 435.800 - 435.900 CW/SSB
RS-15 19 Apr 17:21:40 17:31:47 46° 250° (WSW) 17:42:11 29.354 - 29.394 USB, Beacon 29.352 USB
Hamsat 19 Apr 17:22:38 17:26:00 24° 67° (ENE) 17:29:25 145.90 MHz
ISS 19 Apr 17:26:45 17:29:41 27° 343° (NNW) 17:32:38 145.800 FM
UOSAT-12 19 Apr 17:34:33 17:38:54 46° 118° (ESE) 17:43:21 437.025 FM, 437.400 FM
JAS-2 19 Apr 18:40:44 18:46:24 56° 72° (ENE) 18:51:35 435.800 - 435.900 CW/SSB, 435.910 FM
SO-67 19 Apr 18:44:23 18:47:29 30° 71° (ENE) 18:50:36 435.3500 MHz FM
AO-7 19 Apr 18:51:27 18:53:08 11° 276° (W) 18:54:50 29.400 - 29.500 MHz
Hamsat 19 Apr 18:58:07 19:01:51 31° 264° (W) 19:05:39 145.90 MHz
ISS 19 Apr 19:04:37 19:07:11 20° 4° (N) 19:09:46 145.800 FM
UOSAT-12 19 Apr 19:15:22 19:19:16 26° 317° (NW) 19:23:13 437.025 FM, 437.400 FM
HO-68 19 Apr 19:21:04 19:25:55 20° 53° (NE) 19:30:46 435.675 MHz FM
Saudisat 1A 19 Apr 19:21:19 19:25:34 44° 49° (NE) 19:29:46 436.775 MHz
STRAND 1 19 Apr 19:40:58 19:46:06 84° 104° (ESE) 19:51:11 ?
SO-67 19 Apr 20:18:29 20:20:43 16° 268° (W) 20:22:58 435.3500 MHz FM
JAS-2 19 Apr 20:27:39 20:31:48 20° 267° (W) 20:35:44 435.800 - 435.900 CW/SSB, 435.910 FM
Oscar 11 19 Apr 20:35:22 20:37:59 16° 63° (ENE) 20:40:37 145.825 FM, Beacon 2401.500 USB
ISS 19 Apr 20:41:23 20:44:34 39° 23° (NNE) 20:47:46 145.800 FM
Saudisat 1A 19 Apr 21:01:30 21:04:54 22° 247° (WSW) 21:08:17 436.775 MHz
HO-68 19 Apr 21:05:33 21:12:42 90° 71° (ENE) 21:19:54 435.675 MHz FM
STRAND 1 19 Apr 21:22:01 21:24:36 14° 302° (WNW) 21:27:10 ?
FUNcube-1 19 Apr 22:00:45 22:04:38 38° 71° (ENE) 22:08:30 145.950 - 145.970 MHz USB
Oscar 11 19 Apr 22:09:33 22:13:46 53° 260° (W) 22:18:00 145.825 FM, Beacon 2401.500 USB
MaSat-1 19 Apr 22:15:48 22:18:25 33° 300° (WNW) 22:20:48 437.345 MHz
ISS 19 Apr 22:18:12 22:21:17 34° 221° (SW) 22:24:21 145.800 FM
HO-68 19 Apr 22:57:02 23:01:19 17° 271° (W) 23:05:37 435.675 MHz FM
PCSat 19 Apr 23:27:46 23:30:57 16° 104° (ESE) 23:34:10 145.825 MHz
FUNcube-1 19 Apr 23:38:14 23:41:13 19° 267° (W) 23:44:11 145.950 - 145.970 MHz USB
SO-50 19 Apr 23:42:08 23:46:33 42° 49° (NE) 23:51:01 436.795 FM
Sapphire 20 Apr 00:23:47 00:28:54 45° 113° (ESE) 00:34:04 437.095 MHz 1200 baud AX-25 AFSK
UOSAT-12 20 Apr 00:24:20 00:26:24 13° 31° (NNE) 00:28:29 437.025 FM, 437.400 FM
OPAL 20 Apr 01:04:18 01:07:04 15° 56° (NE) 01:09:51 ?
PCSat 20 Apr 01:08:19 01:13:43 75° 302° (WNW) 01:19:10 145.825 MHz
SO-50 20 Apr 01:23:05 01:26:56 26° 246° (WSW) 01:30:50 436.795 FM
Uribyol 2 20 Apr 01:31:28 01:32:34 11° 87° (E) 01:33:41 436.500 FM
Oscar 10/S400 20 Apr 01:50:31 02:06:13 22° 128° (SE) 02:39:56 145.825 - 145.975 CW/USB, Beacon 145.810 USB
UOSAT-12 20 Apr 02:02:55 02:07:36 57° 52° (NE) 02:12:13 437.025 FM, 437.400 FM
Sapphire 20 Apr 02:07:44 02:12:30 31° 312° (NW) 02:17:17 437.095 MHz 1200 baud AX-25 AFSK
AO-27 20 Apr 02:09:19 02:13:33 25° 94° (E) 02:17:45 436.795 MHz FM
ITAMSAT 1 20 Apr 02:19:41 02:24:14 30° 96° (E) 02:28:45 435.822 SSB
AO-Echo 20 Apr 02:22:27 02:26:21 25° 94° (E) 02:30:11 ?
Oscar 19 20 Apr 02:23:07 02:28:17 62° 101° (ESE) 02:33:25 437.125 CW, 437.150 USB
KITSAT 1 20 Apr 02:25:06 02:32:40 46° 111° (ESE) 02:40:16 435.175 FM
Oscar 16 20 Apr 02:31:27 02:36:41 79° 103° (ESE) 02:41:53 437.025 USB, Beacon 2401.1428
OPAL 20 Apr 02:40:14 02:45:16 82° 254° (WSW) 02:50:24 ?
TMSAT-1 20 Apr 02:53:07 02:55:59 15° 89° (E) 02:58:50 436.925 FM
PCSat 20 Apr 02:54:48 02:58:05 16° 323° (NW) 03:01:23 145.825 MHz
Uribyol 2 20 Apr 03:07:34 03:12:47 87° 104° (ESE) 03:17:58 436.500 FM
Gurwin Techsat 1B 20 Apr 03:43:18 03:48:33 58° 101° (E) 03:53:46 435.225 FM
UOSAT-12 20 Apr 03:44:02 03:47:20 19° 249° (WSW) 03:50:37 437.025 FM, 437.400 FM
AO-27 20 Apr 03:48:21 03:53:13 43° 291° (WNW) 03:58:05 436.795 MHz FM
ITAMSAT 1 20 Apr 03:59:04 04:03:44 35° 293° (WNW) 04:08:24 435.822 SSB
AO-Echo 20 Apr 04:00:51 04:05:15 37° 292° (WNW) 04:09:33 ?
Oscar 19 20 Apr 04:03:34 04:07:09 19° 299° (WNW) 04:10:43 437.125 CW, 437.150 USB
Oscar 16 20 Apr 04:12:27 04:15:23 15° 301° (WNW) 04:18:19 437.025 USB, Beacon 2401.1428
Uosat F 20 Apr 04:19:31 04:24:00 32° 97° (E) 04:28:28 435.120 FM
KITSAT 1 20 Apr 04:20:16 04:28:03 48° 312° (NW) 04:35:53 435.175 FM
TMSAT-1 20 Apr 04:31:10 04:36:28 74° 286° (WNW) 04:41:44 436.925 FM
Uribyol 2 20 Apr 04:49:00 04:51:32 14° 302° (WNW) 04:54:03 436.500 FM
AO-7 20 Apr 04:50:43 04:58:33 43° 99° (E) 05:06:21 29.400 - 29.500 MHz
JAS-1B 20 Apr 04:52:32 04:58:14 76° 104° (ESE) 05:04:08 435.800 - 435.900 CW/SSB
STRAND 1 20 Apr 05:21:04 05:24:34 19° 61° (ENE) 05:28:03 ?
Gurwin Techsat 1B 20 Apr 05:24:15 05:28:05 21° 298° (WNW) 05:31:54 435.225 FM
RS-15 20 Apr 05:35:56 05:44:57 29° 104° (ESE) 05:53:42 29.354 - 29.394 USB, Beacon 29.352 USB
Uosat F 20 Apr 05:58:21 06:02:45 31° 294° (WNW) 06:07:07 435.120 FM
TMSAT-1 20 Apr 06:13:59 06:15:28 11° 304° (NW) 06:16:57 436.925 FM
KITSAT 1 20 Apr 06:20:30 06:25:46 18° 339° (NNW) 06:31:02 435.175 FM
MaSat-1 20 Apr 06:37:13 06:40:02 45° 61° (ENE) 06:43:21 437.345 MHz
Hamsat 20 Apr 06:42:18 06:46:26 41° 98° (E) 06:50:33 145.90 MHz
AO-7 20 Apr 06:43:34 06:51:21 47° 299° (WNW) 06:59:10 29.400 - 29.500 MHz
JAS-1B 20 Apr 06:45:00 06:48:17 16° 303° (WNW) 06:51:35 435.800 - 435.900 CW/SSB
STRAND 1 20 Apr 06:58:14 07:03:17 61° 259° (WSW) 07:08:21 ?
Sapphire 20 Apr 07:29:03 07:30:52 12° 31° (NNE) 07:32:40 437.095 MHz 1200 baud AX-25 AFSK
JAS-2 20 Apr 07:32:14 07:37:22 43° 99° (E) 07:42:59 435.800 - 435.900 CW/SSB, 435.910 FM
SO-67 20 Apr 07:40:38 07:43:49 31° 97° (E) 07:46:58 435.3500 MHz FM
RS-15 20 Apr 07:44:48 07:56:08 81° 305° (NW) 08:07:10 29.354 - 29.394 USB, Beacon 29.352 USB
PCSat 20 Apr 08:12:31 08:16:38 21° 42° (NE) 08:20:44 145.825 MHz
Hamsat 20 Apr 08:18:58 08:22:08 20° 294° (WNW) 08:25:19 145.90 MHz
KITSAT 1 20 Apr 08:20:54 08:25:08 15° 10° (N) 08:29:21 435.175 FM
HO-68 20 Apr 08:34:03 08:38:01 15° 88° (E) 08:41:59 435.675 MHz FM
AO-7 20 Apr 08:39:29 08:42:06 12° 321° (NW) 08:44:43 29.400 - 29.500 MHz
Sapphire 20 Apr 09:10:25 09:15:41 48° 53° (NE) 09:20:54 437.095 MHz 1200 baud AX-25 AFSK
SO-67 20 Apr 09:14:30 09:16:44 16° 293° (WNW) 09:18:58 435.3500 MHz FM
JAS-2 20 Apr 09:17:53 09:22:21 28° 294° (WNW) 09:27:08 435.800 - 435.900 CW/SSB, 435.910 FM
PCSat 20 Apr 09:55:13 10:00:38 74° 242° (WSW) 10:06:02 145.825 MHz
Oscar 11 20 Apr 09:56:27 10:00:04 25° 95° (E) 10:03:41 145.825 FM, Beacon 2401.500 USB
RS-15 20 Apr 10:00:50 10:10:25 32° 333° (NNW) 10:19:54 29.354 - 29.394 USB, Beacon 29.352 USB
KITSAT 1 20 Apr 10:16:36 10:23:40 31° 38° (NE) 10:30:40 435.175 FM
HO-68 20 Apr 10:19:29 10:26:42 85° 106° (ESE) 10:33:54 435.675 MHz FM
Sapphire 20 Apr 10:54:22 10:58:49 26° 252° (WSW) 11:03:15 437.095 MHz 1200 baud AX-25 AFSK
Saudisat 1A 20 Apr 11:08:00 11:12:26 72° 122° (ESE) 11:16:54 436.775 MHz
FUNcube-1 20 Apr 11:24:34 11:28:50 73° 102° (ESE) 11:33:10 145.950 - 145.970 MHz USB
Oscar 11 20 Apr 11:32:26 11:36:17 31° 291° (WNW) 11:40:07 145.825 FM, Beacon 2401.500 USB
Oscar 19 20 Apr 12:05:02 12:07:42 14° 58° (ENE) 12:10:23 437.125 CW, 437.150 USB
HO-68 20 Apr 12:08:28 12:13:34 22° 306° (NW) 12:18:41 435.675 MHz FM
KITSAT 1 20 Apr 12:11:47 12:19:54 78° 241° (WSW) 12:27:56 435.175 FM
Oscar 16 20 Apr 12:12:38 12:16:00 18° 60° (ENE) 12:19:24 437.025 USB, Beacon 2401.1428
RS-15 20 Apr 12:18:53 12:27:24 25° 9° (N) 12:35:55 29.354 - 29.394 USB, Beacon 29.352 USB
Uribyol 2 20 Apr 12:49:10 12:52:54 21° 62° (ENE) 12:56:38 436.500 FM
Saudisat 1A 20 Apr 12:49:21 12:52:32 19° 321° (NW) 12:55:43 436.775 MHz
FUNcube-1 20 Apr 13:03:07 13:04:42 12° 299° (WNW) 13:06:19 145.950 - 145.970 MHz USB
AO-27 20 Apr 13:28:28 13:33:21 43° 69° (ENE) 13:38:14 436.795 MHz FM
Gurwin Techsat 1B 20 Apr 13:28:43 13:31:39 15° 58° (ENE) 13:34:36 435.225 FM
AO-Echo 20 Apr 13:35:59 13:40:49 39° 69° (ENE) 13:45:32 ?
ITAMSAT 1 20 Apr 13:38:45 13:43:46 52° 71° (ENE) 13:48:47 435.822 SSB
Oscar 19 20 Apr 13:41:12 13:46:20 83° 256° (WSW) 13:51:32 437.125 CW, 437.150 USB
Oscar 16 20 Apr 13:49:44 13:54:50 65° 258° (WSW) 13:59:59 437.025 USB, Beacon 2401.1428
JAS-1B 20 Apr 13:51:49 13:55:37 15° 56° (NE) 13:59:09 435.800 - 435.900 CW/SSB
AO-7 20 Apr 14:03:03 14:07:39 16° 44° (NE) 14:12:14 29.400 - 29.500 MHz
KITSAT 1 20 Apr 14:09:35 14:13:58 16° 260° (W) 14:18:22 435.175 FM
TMSAT-1 20 Apr 14:14:32 14:18:53 27° 64° (ENE) 14:23:15 436.925 FM
Uribyol 2 20 Apr 14:26:54 14:31:58 56° 259° (W) 14:37:03 436.500 FM
RS-15 20 Apr 14:32:50 14:43:20 48° 41° (NE) 14:53:58 29.354 - 29.394 USB, Beacon 29.352 USB
OPAL 20 Apr 14:49:32 14:53:45 24° 96° (E) 14:57:55 ?
ISS 20 Apr 15:01:11 15:04:20 40° 140° (SE) 15:07:30 145.800 FM
Gurwin Techsat 1B 20 Apr 15:05:37 15:10:56 82° 256° (WSW) 15:16:17 435.225 FM
AO-27 20 Apr 15:08:48 15:13:01 25° 266° (W) 15:17:15 436.795 MHz FM
AO-Echo 20 Apr 15:15:14 15:19:39 27° 265° (W) 15:24:00 ?
ITAMSAT 1 20 Apr 15:19:45 15:23:33 21° 268° (W) 15:27:23 435.822 SSB
Uosat F 20 Apr 15:33:49 15:38:40 51° 71° (ENE) 15:43:32 435.120 FM
JAS-1B 20 Apr 15:37:28 15:45:28 76° 73° (ENE) 15:52:08 435.800 - 435.900 CW/SSB
SO-50 20 Apr 15:38:25 15:42:53 79° 123° (ESE) 15:47:25 436.795 FM
AO-7 20 Apr 15:50:44 15:58:52 64° 66° (ENE) 16:07:01 29.400 - 29.500 MHz
TMSAT-1 20 Apr 15:53:35 15:58:35 43° 262° (W) 16:03:38 436.925 FM
UOSAT-12 20 Apr 16:18:19 16:20:02 12° 107° (ESE) 16:21:45 437.025 FM, 437.400 FM
